Location: Cicognara
(44.9500°N, 10.4667°E)
Time: 23:44:34
(UTC+00:00)

Spot 2 Rocket - Pass Details

Date: 20 June 2021
Orbit: 758 x 771 km, 98.5° (Epoch: 23 July)

Event Time Altitude Azimuth Distance (km) Brightness Sun altitude
Exits shadow 20:28:30 13° 160° (SSE) 2,060 5.1 -11.2°
Maximum altitude 20:32:58 80° 74° (ENE) 781 3.5 -11.7°
Drops below altitude 10° 20:38:04 10° 348° (NNW) 2,315 7.1 -12.3°
Sets 20:40:23 0° 348° (NNW) 3,248 8.0 -12.6°
